• In Germany
  • List of Countries
  • For 7 days
  • Water Temperature
  • Satellite Maps
  • Weather Map
  • Weather Widgets
  • user-avatar
    Login

    Hourly Weather Barra

    Today, 21 February, Wednesday

    Time Temperature Precipitation Wind Pressure Humidity
    00:00 +27°C° 0.4 mm 3 mps 742 mmHg 84%
    01:00 +27°C° 0.4 mm 3 mps 742 mmHg 82%
    02:00 +27°C° 0.1 mm 3 mps 742 mmHg 83%
    03:00 +26°C° 0.1 mm 2 mps 742 mmHg 84%
    04:00 +25°C° 0 mm 1 mps 743 mmHg 90%
    05:00 +26°C° 0.3 mm 1 mps 743 mmHg 89%
    06:00 +26°C° 0.3 mm 1 mps 743 mmHg 88%
    07:00 +26°C° 0.3 mm 1 mps 743 mmHg 87%
    08:00 +29°C° 0.1 mm 1 mps 743 mmHg 76%
    09:00 +32°C° 0.1 mm 1 mps 743 mmHg 66%
    10:00 +34°C° 0.1 mm 1 mps 742 mmHg 55%
    11:00 +36°C° 0 mm 2 mps 742 mmHg 50%
    12:00 +37°C° 0 mm 3 mps 742 mmHg 46%
    13:00 +39°C° 0 mm 3 mps 741 mmHg 41%
    14:00 +38°C° 0 mm 4 mps 741 mmHg 45%
    15:00 +37°C° 0 mm 5 mps 740 mmHg 49%
    16:00 +34°C° 0 mm 4 mps 741 mmHg 62%
    17:00 +32°C° 0.7 mm 4 mps 741 mmHg 71%
    18:00 +29°C° 0.7 mm 4 mps 741 mmHg 81%
    19:00 +27°C° 0.7 mm 3 mps 741 mmHg 90%
    20:00 +27°C° 1.2 mm 3 mps 741 mmHg 91%
    21:00 +27°C° 1.2 mm 3 mps 742 mmHg 91%
    22:00 +26°C° 1.2 mm 4 mps 742 mmHg 92%
    23:00 +26°C° 1.7 mm 3 mps 742 mmHg 93%

    Tomorrow, 22 February, Thursday

    Time Temperature Precipitation Wind Pressure Humidity
    00:00 +26°C° 1.7 mm 3 mps 742 mmHg 94%
    01:00 +25°C° 1.7 mm 2 mps 742 mmHg 95%
    02:00 +25°C° 0.5 mm 2 mps 742 mmHg 96%
    03:00 +25°C° 0.5 mm 2 mps 742 mmHg 96%
    04:00 +25°C° 0.5 mm 2 mps 742 mmHg 96%
    05:00 +25°C° 0.2 mm 1 mps 742 mmHg 96%
    06:00 +25°C° 0.2 mm 1 mps 743 mmHg 96%
    07:00 +25°C° 0.2 mm 1 mps 743 mmHg 95%
    08:00 +27°C° 0.6 mm 1 mps 743 mmHg 90%
    09:00 +28°C° 0.6 mm 1 mps 743 mmHg 84%
    10:00 +30°C° 0.6 mm 1 mps 744 mmHg 79%
    11:00 +31°C° 0.4 mm 1 mps 743 mmHg 73%
    12:00 +31°C° 0.4 mm 2 mps 743 mmHg 68%
    13:00 +32°C° 0.4 mm 2 mps 743 mmHg 62%
    14:00 +33°C° 0.1 mm 3 mps 742 mmHg 62%
    15:00 +33°C° 0.1 mm 3 mps 742 mmHg 62%
    16:00 +33°C° 0.1 mm 3 mps 741 mmHg 62%
    17:00 +30°C° 0.3 mm 3 mps 742 mmHg 69%
    18:00 +29°C° 0.3 mm 3 mps 742 mmHg 76%
    19:00 +27°C° 0.3 mm 3 mps 742 mmHg 83%
    20:00 +27°C° 0.4 mm 3 mps 743 mmHg 87%
    21:00 +26°C° 0.4 mm 3 mps 743 mmHg 90%
    22:00 +26°C° 0.4 mm 3 mps 744 mmHg 94%
    23:00 +26°C° 0.2 mm 3 mps 744 mmHg 94%

    Day after tomorrow, 23 February, Friday

    Time Temperature Precipitation Wind Pressure Humidity
    00:00 +25°C° 0.2 mm 3 mps 743 mmHg 95%
    01:00 +25°C° 0.2 mm 3 mps 743 mmHg 96%
    02:00 +25°C° 0.3 mm 3 mps 743 mmHg 96%
    03:00 +25°C° 0.3 mm 2 mps 743 mmHg 96%
    04:00 +25°C° 0.3 mm 2 mps 743 mmHg 96%
    05:00 +25°C° 1.3 mm 2 mps 743 mmHg 96%
    06:00 +25°C° 1.3 mm 3 mps 743 mmHg 97%
    07:00 +25°C° 1.3 mm 3 mps 744 mmHg 97%
    08:00 +26°C° 3.1 mm 3 mps 744 mmHg 94%
    09:00 +28°C° 3.1 mm 3 mps 745 mmHg 91%
    10:00 +29°C° 3.1 mm 3 mps 745 mmHg 88%
    11:00 +28°C° 2.5 mm 3 mps 745 mmHg 89%
    12:00 +28°C° 2.5 mm 3 mps 745 mmHg 90%
    13:00 +27°C° 2.5 mm 3 mps 745 mmHg 92%
    14:00 +28°C° 0.3 mm 3 mps 744 mmHg 88%
    15:00 +28°C° 0.3 mm 3 mps 744 mmHg 84%
    16:00 +29°C° 0.3 mm 4 mps 744 mmHg 80%
    17:00 +28°C° 0.3 mm 3 mps 744 mmHg 83%
    18:00 +27°C° 0.3 mm 3 mps 744 mmHg 86%
    19:00 +27°C° 0.3 mm 3 mps 745 mmHg 89%
    20:00 +26°C° 0.1 mm 3 mps 745 mmHg 90%
    21:00 +26°C° 0.1 mm 3 mps 746 mmHg 92%
    22:00 +26°C° 0.1 mm 2 mps 746 mmHg 93%
    23:00 +26°C° 0.6 mm 2 mps 746 mmHg 93%

    24 February, Saturday

    Time Temperature Precipitation Wind Pressure Humidity
    00:00 +26°C° 0.6 mm 3 mps 746 mmHg 94%
    01:00 +26°C° 0.6 mm 3 mps 745 mmHg 95%
    02:00 +26°C° 0.4 mm 2 mps 745 mmHg 94%
    03:00 +26°C° 0.4 mm 2 mps 744 mmHg 94%
    04:00 +26°C° 0.4 mm 2 mps 744 mmHg 94%
    05:00 +26°C° 0.3 mm 2 mps 745 mmHg 94%
    06:00 +26°C° 0.3 mm 2 mps 745 mmHg 94%
    07:00 +26°C° 0.3 mm 2 mps 746 mmHg 94%
    08:00 +28°C° 0.5 mm 2 mps 746 mmHg 87%
    09:00 +29°C° 0.5 mm 2 mps 746 mmHg 80%
    10:00 +31°C° 0.5 mm 2 mps 746 mmHg 73%
    11:00 +31°C° 1.1 mm 3 mps 746 mmHg 77%
    12:00 +30°C° 1.1 mm 3 mps 745 mmHg 80%
    13:00 +30°C° 1.1 mm 3 mps 745 mmHg 84%
    14:00 +30°C° 1.7 mm 3 mps 744 mmHg 86%
    15:00 +29°C° 1.7 mm 2 mps 744 mmHg 88%
    16:00 +29°C° 1.7 mm 2 mps 744 mmHg 89%
    17:00 +28°C° 1.5 mm 2 mps 744 mmHg 91%
    18:00 +27°C° 1.5 mm 2 mps 745 mmHg 93%
    19:00 +26°C° 1.5 mm 2 mps 745 mmHg 95%
    20:00 +26°C° 1 mm 2 mps 746 mmHg 95%
    21:00 +26°C° 1 mm 2 mps 746 mmHg 95%
    22:00 +26°C° 1 mm 2 mps 747 mmHg 95%
    23:00 +25°C° 0.5 mm 2 mps 746 mmHg 95%

    25 February, Sunday

    Time Temperature Precipitation Wind Pressure Humidity
    00:00 +25°C° 0.5 mm 2 mps 746 mmHg 96%
    01:00 +25°C° 0.5 mm 2 mps 746 mmHg 96%
    02:00 +25°C° 0.2 mm 2 mps 745 mmHg 96%
    03:00 +25°C° 0.2 mm 1 mps 745 mmHg 97%
    04:00 +25°C° 0.2 mm 1 mps 744 mmHg 97%
    05:00 +25°C° 0 mm 1 mps 744 mmHg 96%
    06:00 +25°C° 0 mm 1 mps 745 mmHg 96%
    07:00 +25°C° 0 mm 1 mps 745 mmHg 96%
    08:00 +27°C° 0.1 mm 1 mps 746 mmHg 87%
    09:00 +29°C° 0.1 mm 2 mps 746 mmHg 79%
    10:00 +31°C° 0.1 mm 2 mps 746 mmHg 70%
    11:00 +31°C° 0.4 mm 2 mps 745 mmHg 70%
    12:00 +31°C° 0.4 mm 2 mps 745 mmHg 69%
    13:00 +33°C° 0.4 mm 3 mps 744 mmHg 68%
    14:00 +31°C° 1.6 mm 3 mps 744 mmHg 75%
    15:00 +30°C° 1.6 mm 3 mps 743 mmHg 81%
    16:00 +29°C° 1.6 mm 3 mps 743 mmHg 87%
    17:00 +28°C° 1.3 mm 3 mps 743 mmHg 90%
    18:00 +27°C° 1.3 mm 2 mps 744 mmHg 92%
    19:00 +27°C° 1.3 mm 2 mps 744 mmHg 94%
    20:00 +26°C° 1.6 mm 2 mps 744 mmHg 95%
    21:00 +26°C° 1.6 mm 2 mps 745 mmHg 96%
    22:00 +26°C° 1.6 mm 1 mps 745 mmHg 96%
    23:00 +26°C° 2.1 mm 1 mps 745 mmHg 96%

    26 February, Monday

    Time Temperature Precipitation Wind Pressure Humidity
    00:00 +26°C° 2.1 mm 1 mps 745 mmHg 97%
    01:00 +26°C° 2.1 mm 1 mps 745 mmHg 97%
    02:00 +26°C° 0.6 mm 1 mps 745 mmHg 97%
    03:00 +26°C° 0.6 mm 1 mps 744 mmHg 97%
    04:00 +25°C° 0.6 mm 1 mps 744 mmHg 97%
    05:00 +26°C° 0.1 mm 1 mps 745 mmHg 97%
    06:00 +26°C° 0.1 mm 1 mps 745 mmHg 97%
    07:00 +26°C° 0.1 mm 1 mps 745 mmHg 97%
    08:00 +27°C° 0.1 mm 1 mps 746 mmHg 90%
    09:00 +29°C° 0.1 mm 1 mps 746 mmHg 83%
    10:00 +30°C° 0.1 mm 1 mps 746 mmHg 75%
    11:00 +31°C° 0.1 mm 2 mps 745 mmHg 71%
    12:00 +32°C° 0.1 mm 2 mps 745 mmHg 68%
    13:00 +34°C° 0.1 mm 3 mps 744 mmHg 64%
    14:00 +33°C° 0.2 mm 3 mps 744 mmHg 66%
    15:00 +33°C° 0.2 mm 3 mps 744 mmHg 69%
    16:00 +31°C° 0.2 mm 3 mps 744 mmHg 71%
    17:00 +30°C° 0.1 mm 3 mps 744 mmHg 77%
    18:00 +29°C° 0.1 mm 2 mps 745 mmHg 82%
    19:00 +27°C° 0.1 mm 2 mps 745 mmHg 88%
    20:00 +27°C° 0.5 mm 2 mps 745 mmHg 90%
    21:00 +27°C° 0.5 mm 1 mps 746 mmHg 91%
    22:00 +27°C° 0.5 mm 1 mps 746 mmHg 92%
    23:00 +26°C° 0.7 mm 1 mps 746 mmHg 94%
    Show more